This demonstration page uses our WeatherBlox Daily Observations layout. Learn more.

Left ArrowRight Arrow

Hourly Observations for December 1, 2022

Temp ( °F °C ) Dew Point ( °F °C ) Humidity (%) Winds ( mph kmh ) Pressure ( in mb ) Visibility ( mi km ) Precip ( " mm )
12:52 am 00:52 Clear 23 -5 16 -8.9 74 74 SE 3 6 30.49 1032 10 16 0.00 0.00
1:52 am 01:52 Clear 24 -4.4 17 -8.3 74 74 SSE 5 7 30.48 1032 10 16 0.00 0.00
2:52 am 02:52 Clear 25 -3.9 18 -7.8 74 74 ESE 5 7 30.46 1031 10 16 0.00 0.00
3:52 am 03:52 Clear 27 -2.8 19 -7.2 72 72 SE 6 9 30.45 1031 10 16 0.00 0.00
4:52 am 04:52 Clear 25 -3.9 16 -8.9 68 68 SE 7 11 30.44 1031 10 16 0.00 0.00
5:52 am 05:52 Clear 26 -3.3 17 -8.3 68 68 SSE 9 15 30.44 1031 10 16 0.00 0.00
6:52 am 06:52 Clear 25 -3.9 17 -8.3 71 71 S 9 15 30.45 1031 10 16 0.00 0.00
7:52 am 07:52 Mostly Cloudy 28 -2.2 18 -7.8 65 65 SSE 12 19 30.45 1031 10 16 0.00 0.00
8:52 am 08:52 Cloudy 31 -0.6 19 -7.2 61 61 SSE 14 22 30.45 1031 10 16 0.00 0.00
9:52 am 09:52 Cloudy 34 1.1 19 -7.2 54 54 S 17 28 30.44 1031 10 16 0.00 0.00
10:52 am 10:52 Mostly Sunny 41 5 18 -7.8 39 39 S 20 31 30.40 1030 10 16 0.00 0.00
11:52 am 11:52 Sunny 44 6.7 16 -8.9 32 32 S 15 24 30.37 1028 10 16 0.00 0.00
12:52 pm 12:52 Partly Cloudy 46 7.8 16 -8.9 29 29 SSE 22 35 30.31 1026 10 16 0.00 0.00
1:52 pm 13:52 Mostly Cloudy 48 8.9 17 -8.3 29 29 SSE 18 30 30.28 1025 10 16 0.00 0.00
2:52 pm 14:52 Sunny 49 9.4 17 -8.3 28 28 SSE 20 31 30.25 1025 10 16 0.00 0.00
3:52 pm 15:52 Cloudy 47 8.3 18 -7.8 31 31 SSE 13 20 30.23 1024 10 16 0.00 0.00
4:52 pm 16:52 Cloudy 46 7.8 19 -7.2 34 34 SSE 12 19 30.22 1023 10 16 0.00 0.00
5:52 pm 17:52 Mostly Cloudy 45 7.2 18 -7.8 33 33 SSE 15 24 30.20 1023 10 16 0.00 0.00
7:52 pm 19:52 Clear 43 6.1 17 -8.3 35 35 SSE 16 26 30.16 1022 10 16 0.00 0.00
8:52 pm 20:52 Mostly Cloudy 43 6.1 18 -7.8 36 36 SSE 17 28 30.16 1021 10 16 0.00 0.00
9:52 pm 21:52 Cloudy 44 6.7 18 -7.8 35 35 SSE 16 26 30.15 1021 10 16 0.00 0.00
10:52 pm 22:52 Cloudy 44 6.7 18 -7.8 35 35 S 16 26 30.13 1020 10 16 0.00 0.00
11:52 pm 23:52 Cloudy 44 6.7 18 -7.8 35 35 S 15 24 30.11 1020 10 16 0.00 0.00

Powered by AerisWeather